When you browse on this site, cookies collect data to enhance your experience and personalize the content and advertising you see.
Visit our Privacy Policy to learn more. By continuing to use the site, you agree to this use of cookies and data.
  • In Portugal
  • List of Countries
  • For 7 days
  • Water Temperature
  • Satellite Maps
  • Weather Map
  • Weather Widgets
  • user-avatar
    Login

    Hourly Weather Belfast

    Today, 20 July, Saturday

    Time Temperature Precipitation Wind Pressure Humidity
    00:00 +16°C° 0 mm 2 mps 747 mmHg 98%
    01:00 +15°C° 0.3 mm 2 mps 747 mmHg 98%
    02:00 +15°C° 0.3 mm 2 mps 747 mmHg 98%
    03:00 +14°C° 0.3 mm 2 mps 747 mmHg 98%
    04:00 +13°C° 0 mm 3 mps 747 mmHg 97%
    05:00 +13°C° 0 mm 4 mps 748 mmHg 95%
    06:00 +13°C° 0 mm 4 mps 748 mmHg 96%
    07:00 +14°C° 0 mm 5 mps 749 mmHg 92%
    08:00 +15°C° 0 mm 5 mps 750 mmHg 87%
    09:00 +15°C° 0 mm 6 mps 750 mmHg 83%
    10:00 +16°C° 0 mm 5 mps 751 mmHg 78%
    11:00 +17°C° 0 mm 5 mps 751 mmHg 73%
    12:00 +19°C° 0 mm 5 mps 752 mmHg 69%
    13:00 +19°C° 0 mm 5 mps 753 mmHg 70%
    14:00 +19°C° 0 mm 4 mps 753 mmHg 71%
    15:00 +19°C° 0 mm 4 mps 754 mmHg 73%
    16:00 +19°C° 0.1 mm 3 mps 754 mmHg 75%
    17:00 +19°C° 0.1 mm 3 mps 755 mmHg 77%
    18:00 +19°C° 0.1 mm 2 mps 755 mmHg 78%
    19:00 +18°C° 0.1 mm 2 mps 755 mmHg 81%
    20:00 +17°C° 0.1 mm 2 mps 756 mmHg 83%
    21:00 +16°C° 0.1 mm 2 mps 757 mmHg 85%
    22:00 +15°C° 0 mm 2 mps 757 mmHg 87%
    23:00 +14°C° 0 mm 3 mps 757 mmHg 89%

    Tomorrow, 21 July, Sunday

    Time Temperature Precipitation Wind Pressure Humidity
    00:00 +14°C° 0 mm 3 mps 757 mmHg 91%
    01:00 +13°C° 0 mm 3 mps 757 mmHg 92%
    02:00 +13°C° 0 mm 3 mps 757 mmHg 93%
    03:00 +12°C° 0 mm 3 mps 758 mmHg 94%
    04:00 +13°C° 0 mm 3 mps 758 mmHg 94%
    05:00 +13°C° 0 mm 3 mps 758 mmHg 94%
    06:00 +13°C° 0 mm 3 mps 758 mmHg 95%
    07:00 +14°C° 0 mm 4 mps 758 mmHg 91%
    08:00 +15°C° 0 mm 4 mps 758 mmHg 88%
    09:00 +17°C° 0 mm 4 mps 759 mmHg 85%
    10:00 +16°C° 0.4 mm 5 mps 759 mmHg 87%
    11:00 +15°C° 0.4 mm 5 mps 758 mmHg 90%
    12:00 +15°C° 0.4 mm 5 mps 758 mmHg 92%
    13:00 +16°C° 0.4 mm 6 mps 758 mmHg 92%
    14:00 +16°C° 0.4 mm 6 mps 758 mmHg 92%
    15:00 +17°C° 0.4 mm 6 mps 758 mmHg 93%
    16:00 +17°C° 2.2 mm 6 mps 757 mmHg 94%
    17:00 +16°C° 2.2 mm 7 mps 756 mmHg 96%
    18:00 +16°C° 2.2 mm 7 mps 756 mmHg 97%
    19:00 +17°C° 0.9 mm 7 mps 755 mmHg 97%
    20:00 +17°C° 0.9 mm 7 mps 755 mmHg 97%
    21:00 +17°C° 0.9 mm 6 mps 755 mmHg 97%
    22:00 +18°C° 0.2 mm 7 mps 755 mmHg 96%
    23:00 +18°C° 0.2 mm 7 mps 755 mmHg 96%

    Day after tomorrow, 22 July, Monday

    Time Temperature Precipitation Wind Pressure Humidity
    00:00 +18°C° 0.2 mm 7 mps 755 mmHg 95%
    01:00 +18°C° 0 mm 7 mps 755 mmHg 94%
    02:00 +18°C° 0 mm 7 mps 755 mmHg 94%
    03:00 +17°C° 0 mm 7 mps 755 mmHg 93%
    04:00 +17°C° 0 mm 7 mps 755 mmHg 92%
    05:00 +17°C° 0 mm 7 mps 755 mmHg 92%
    06:00 +17°C° 0 mm 7 mps 755 mmHg 91%
    07:00 +18°C° 0 mm 7 mps 756 mmHg 89%
    08:00 +18°C° 0 mm 8 mps 756 mmHg 86%
    09:00 +20°C° 0 mm 8 mps 757 mmHg 84%
    10:00 +21°C° 0 mm 8 mps 757 mmHg 82%
    11:00 +22°C° 0 mm 8 mps 758 mmHg 80%
    12:00 +22°C° 0 mm 8 mps 758 mmHg 77%
    13:00 +23°C° 0 mm 8 mps 758 mmHg 77%
    14:00 +23°C° 0 mm 7 mps 758 mmHg 77%
    15:00 +23°C° 0 mm 7 mps 758 mmHg 77%
    16:00 +23°C° 0 mm 6 mps 759 mmHg 79%
    17:00 +23°C° 0 mm 5 mps 759 mmHg 80%
    18:00 +23°C° 0 mm 5 mps 759 mmHg 82%
    19:00 +22°C° 0 mm 4 mps 759 mmHg 86%
    20:00 +20°C° 0 mm 4 mps 760 mmHg 90%
    21:00 +19°C° 0 mm 3 mps 760 mmHg 94%
    22:00 +18°C° 0 mm 3 mps 760 mmHg 95%
    23:00 +18°C° 0 mm 3 mps 760 mmHg 96%

    23 July, Tuesday

    Time Temperature Precipitation Wind Pressure Humidity
    00:00 +17°C° 0 mm 3 mps 760 mmHg 97%
    01:00 +17°C° 0 mm 3 mps 760 mmHg 97%
    02:00 +16°C° 0 mm 3 mps 760 mmHg 97%
    03:00 +16°C° 0 mm 3 mps 760 mmHg 97%
    04:00 +16°C° 0 mm 3 mps 760 mmHg 97%
    05:00 +16°C° 0 mm 3 mps 760 mmHg 97%
    06:00 +16°C° 0 mm 3 mps 760 mmHg 97%
    07:00 +18°C° 0 mm 4 mps 760 mmHg 93%
    08:00 +19°C° 0 mm 4 mps 760 mmHg 90%
    09:00 +20°C° 0 mm 5 mps 760 mmHg 87%
    10:00 +21°C° 0 mm 5 mps 760 mmHg 83%
    11:00 +22°C° 0 mm 5 mps 759 mmHg 80%
    12:00 +23°C° 0 mm 5 mps 759 mmHg 77%
    13:00 +23°C° 0 mm 5 mps 759 mmHg 77%
    14:00 +23°C° 0 mm 5 mps 758 mmHg 76%
    15:00 +23°C° 0 mm 5 mps 758 mmHg 76%
    16:00 +22°C° 0 mm 5 mps 758 mmHg 78%
    17:00 +22°C° 0 mm 5 mps 757 mmHg 80%
    18:00 +21°C° 0 mm 4 mps 757 mmHg 82%
    19:00 +20°C° 0 mm 4 mps 757 mmHg 86%
    20:00 +18°C° 0 mm 3 mps 756 mmHg 90%
    21:00 +17°C° 0 mm 2 mps 756 mmHg 94%
    22:00 +17°C° 0 mm 2 mps 756 mmHg 94%
    23:00 +16°C° 0 mm 2 mps 756 mmHg 93%

    24 July, Wednesday

    Time Temperature Precipitation Wind Pressure Humidity
    00:00 +16°C° 0 mm 2 mps 756 mmHg 93%
    01:00 +16°C° 0 mm 2 mps 755 mmHg 92%
    02:00 +16°C° 0 mm 2 mps 755 mmHg 91%
    03:00 +16°C° 0 mm 2 mps 755 mmHg 90%
    04:00 +16°C° 0 mm 2 mps 755 mmHg 89%
    05:00 +17°C° 0 mm 2 mps 755 mmHg 89%
    06:00 +18°C° 0 mm 1 mps 755 mmHg 89%
    07:00 +18°C° 0 mm 2 mps 755 mmHg 87%
    08:00 +19°C° 0 mm 2 mps 755 mmHg 85%
    09:00 +20°C° 0 mm 3 mps 755 mmHg 83%
    10:00 +21°C° 0.1 mm 3 mps 755 mmHg 83%
    11:00 +21°C° 0.1 mm 3 mps 755 mmHg 82%
    12:00 +22°C° 0.1 mm 4 mps 755 mmHg 81%
    13:00 +22°C° 0.2 mm 4 mps 755 mmHg 82%
    14:00 +21°C° 0.2 mm 4 mps 755 mmHg 83%
    15:00 +21°C° 0.2 mm 5 mps 755 mmHg 84%
    16:00 +21°C° 0.1 mm 4 mps 755 mmHg 86%
    17:00 +20°C° 0.1 mm 4 mps 755 mmHg 88%
    18:00 +20°C° 0.1 mm 4 mps 755 mmHg 89%
    19:00 +19°C° 0 mm 3 mps 755 mmHg 91%
    20:00 +18°C° 0 mm 3 mps 755 mmHg 93%
    21:00 +17°C° 0 mm 3 mps 755 mmHg 94%
    22:00 +16°C° 0 mm 2 mps 755 mmHg 95%
    23:00 +16°C° 0 mm 2 mps 755 mmHg 95%

    25 July, Thursday

    Time Temperature Precipitation Wind Pressure Humidity
    00:00 +16°C° 0 mm 2 mps 754 mmHg 95%
    01:00 +16°C° 0 mm 2 mps 754 mmHg 96%
    02:00 +16°C° 0 mm 3 mps 753 mmHg 97%
    03:00 +16°C° 0 mm 3 mps 753 mmHg 97%
    04:00 +17°C° 0 mm 3 mps 752 mmHg 96%
    05:00 +17°C° 0 mm 4 mps 752 mmHg 95%
    06:00 +18°C° 0 mm 4 mps 751 mmHg 94%
    07:00 +17°C° 0 mm 5 mps 751 mmHg 91%
    08:00 +19°C° 0 mm 6 mps 751 mmHg 88%
    09:00 +20°C° 0 mm 6 mps 750 mmHg 85%
    10:00 +20°C° 0 mm 7 mps 750 mmHg 82%
    11:00 +21°C° 0 mm 7 mps 750 mmHg 79%
    12:00 +21°C° 0 mm 7 mps 750 mmHg 76%
    13:00 +21°C° 0 mm 8 mps 750 mmHg 78%
    14:00 +20°C° 0 mm 8 mps 749 mmHg 79%
    15:00 +19°C° 0 mm 9 mps 749 mmHg 81%
    16:00 +18°C° 0 mm 9 mps 749 mmHg 80%
    17:00 +18°C° 0 mm 9 mps 749 mmHg 79%
    18:00 +18°C° 0 mm 9 mps 749 mmHg 77%
    19:00 +17°C° 0 mm 8 mps 749 mmHg 80%
    20:00 +16°C° 0 mm 8 mps 749 mmHg 83%
    21:00 +15°C° 0 mm 7 mps 749 mmHg 86%
    22:00 +15°C° 0 mm 7 mps 749 mmHg 87%
    23:00 +14°C° 0 mm 7 mps 749 mmHg 88%
    Show more